Arcata, CA

6:12 PM PDT on October 20, 2017 (GMT -0700)
Arcata

Weather History for KACV - August, 2013

Change the Weather History Date:

Wednesday, August 28, 2013

  Actual Average Record
Temperature  
Mean Temperature 61 °F -  
Max Temperature 70 °F 62 °F 86 °F (2008)
Min Temperature 53 °F 49 °F 44 °F (2012)
Degree Days  
Heating Degree Days 4    
Growing Degree Days 11 (Base 50)    
Moisture  
Dew Point 58 °F    
Average Humidity 88    
Maximum Humidity 100    
Minimum Humidity 68    
Precipitation  
Precipitation 0.00 in - - ()
Sea Level Pressure  
Sea Level Pressure 29.92 in    
Wind  
Wind Speed 1 mph (West)    
Max Wind Speed 8 mph    
Max Gust Speed -    
Visibility 8 miles    
Events Fog    
Averages and records for this station are not official NWS values.
T = Trace of Precipitation, MM = Missing Value Source: NWS Daily Summary

Daily Weather History Graph

Daily Weather History Graph

Search for Another Location

Airport or City:

Trip Planner

Search our weather history database for the weather conditions in past years. The results will help you decide how hot, cold, wet, or windy it might be!

Date:

Astronomy

Aug. 28, 2013 Rise Set
Actual Time 6:39 AM PDT 7:54 PM PDT
Civil Twilight 6:11 AM PDT 8:23 PM PDT
Nautical Twilight 5:36 AM PDT 8:57 PM PDT
Astronomical Twilight 5:01 AM PDT 9:32 PM PDT
Moon No Moon Rise 2:38 PM PDT (8/28)
Length of Visible Light 14h 12m
Length of Day
13h 15m
Last Quarter, 46% of the Moon is Illuminated
Aug 28
Last Quarter
Sep 5
New
Sep 12
First Quarter
Sep 19
Full
Sep 26
Last Quarter

Hourly Weather History & Observations

Time (PDT) Temp. Dew Point Humidity Pressure Visibility Wind Dir Wind Speed Gust Speed Precip Events Conditions
12:05 AM 57.2 °F 57.2 °F 100% 29.88 in 0.2 mi Calm Calm - N/A Fog Fog
12:41 AM 57.2 °F 57.2 °F 100% 29.89 in 0.5 mi Calm Calm - N/A Fog Fog
12:53 AM 57.0 °F 57.0 °F 100% 29.89 in 0.2 mi Calm Calm - N/A Fog Fog
1:00 AM 57.2 °F 57.2 °F 100% 29.88 in 0.5 mi Calm Calm - N/A Fog Fog
1:09 AM 57.2 °F 57.2 °F 100% 29.88 in 2.5 mi Calm Calm - N/A   Mostly Cloudy
1:14 AM 57.2 °F 57.2 °F 100% 29.88 in 5.0 mi Calm Calm - N/A   Scattered Clouds
1:53 AM 55.9 °F 55.9 °F 100% 29.89 in 10.0 mi Calm Calm - N/A   Clear
2:53 AM 54.0 °F 54.0 °F 100% 29.88 in 10.0 mi Calm Calm - N/A   Clear
3:53 AM 54.0 °F 54.0 °F 100% 29.88 in 10.0 mi Calm Calm - N/A   Clear
4:53 AM 53.1 °F 52.0 °F 96% 29.87 in 10.0 mi Calm Calm - N/A   Clear
5:53 AM 53.1 °F 52.0 °F 96% 29.88 in 10.0 mi Calm Calm - N/A   Clear
6:45 AM 53.6 °F 51.8 °F 94% 29.87 in 10.0 mi Calm Calm - N/A   Mostly Cloudy
6:53 AM 54.0 °F 53.1 °F 97% 29.89 in 10.0 mi Calm Calm - N/A   Mostly Cloudy
7:53 AM 59.0 °F 57.0 °F 93% 29.90 in 10.0 mi East 3.5 mph - N/A   Overcast
8:53 AM 64.0 °F 59.0 °F 84% 29.90 in 10.0 mi Calm Calm - N/A   Overcast
9:53 AM 66.9 °F 57.9 °F 73% 29.91 in 10.0 mi West 6.9 mph - N/A   Overcast
10:18 AM 68.0 °F 57.2 °F 68% 29.91 in 10.0 mi West 5.8 mph - N/A   Scattered Clouds
10:53 AM 66.9 °F 57.9 °F 73% 29.93 in 10.0 mi West 6.9 mph - N/A   Clear
11:53 AM 66.9 °F 57.9 °F 73% 29.94 in 10.0 mi West 6.9 mph - N/A   Clear
12:53 PM 68.0 °F 59.0 °F 73% 29.94 in 10.0 mi West 8.1 mph - N/A   Clear
1:50 PM 66.2 °F 59.0 °F 78% 29.94 in 10.0 mi Variable 4.6 mph - N/A   Mostly Cloudy
1:53 PM 66.9 °F 57.9 °F 73% 29.95 in 10.0 mi West 4.6 mph - N/A   Mostly Cloudy
2:53 PM 68.0 °F 59.0 °F 73% 29.95 in 10.0 mi Variable 6.9 mph - N/A   Overcast
3:32 PM 68.0 °F 59.0 °F 73% 29.93 in 10.0 mi SSW 6.9 mph - N/A   Scattered Clouds
3:53 PM 69.1 °F 60.1 °F 73% 29.94 in 10.0 mi Calm Calm - N/A   Clear
4:53 PM 68.0 °F 60.1 °F 76% 29.93 in 10.0 mi West 3.5 mph - N/A   Clear
5:53 PM 66.9 °F 60.1 °F 79% 29.93 in 10.0 mi Calm Calm - N/A   Clear
6:53 PM 66.0 °F 60.1 °F 81% 29.93 in 10.0 mi NNW 4.6 mph - N/A   Mostly Cloudy
7:05 PM 66.2 °F 60.8 °F 83% 29.92 in 10.0 mi North - - N/A   Mostly Cloudy
7:53 PM 64.0 °F 60.1 °F 87% 29.94 in 10.0 mi Calm Calm - N/A   Overcast
8:16 PM 62.6 °F 60.8 °F 94% 29.93 in 10.0 mi Calm Calm - N/A   Overcast
8:53 PM 63.0 °F 60.1 °F 90% 29.95 in 10.0 mi Calm Calm - N/A   Overcast
9:53 PM 64.0 °F 61.0 °F 90% 29.96 in 10.0 mi Calm Calm - N/A   Overcast
10:53 PM 62.1 °F 61.0 °F 96% 29.96 in 7.0 mi WSW 4.6 mph - N/A   Overcast
11:12 PM 62.6 °F 62.6 °F 100% 29.94 in 2.5 mi Calm Calm - N/A   Overcast
11:26 PM 62.6 °F 60.8 °F 94% 29.93 in 3.0 mi Calm Calm - N/A   Overcast
11:51 PM 62.6 °F 60.8 °F 94% 29.93 in 7.0 mi Calm Calm - N/A   Overcast
11:53 PM 62.1 °F 61.0 °F 96% 29.94 in 7.0 mi Calm Calm - N/A   Overcast